Flag for Algeria Weather past 2 weeks in Oran, Algeria

Now
55 °F

Fog.


Feels Like: 55 °F
Forecast: 47 / 62 °F
Wind: 2 mph from Southwest

Location: Oran / Es Senia

Current Time: Dec 21, 2014 at 12:06:24 PM

Latest Report: Dec 21, 2014 at 11:00 AM


Visibility: 1 mi

Pressure: 30.48 "Hg

Humidity: 94%

Dew point: 54 °F

Location of OranLocation

Historic Weather in Oran — Graph

°F

Oran temperature yesterday

Maximum temperature yesterday: 66 °F (at 1:30 PM)
Minimum temperature yesterday: 43 °F (at 7:30 AM)
Average temperature yesterday: 54 °F

Past Weeks' High & Low Weather Summary

 TemperatureHumidityPressure
High70 °F (Dec 13, 3:00 PM)100% (Dec 7, 7:00 AM)30.48 "Hg (Dec 7, 7:00 AM)
Low34 °F (Dec 12, 8:00 AM)30% (Dec 11, 3:00 PM)29.89 "Hg (Dec 14, 4:30 AM)
Average52 °F78%30.24 "Hg
* Reported Dec 6 11:00 AM — Dec 21 11:00 AM, Oran, Weather by CustomWeather, © 2014

Note: Actual official high and low records may vary slightly from our data, if they occured in-between our weather recording intervals... More about our weather records

Advertising

Oran weather history for previous 24 hours

 ConditionsComfort  
Time TempWeatherWind HumidityBarometerVisibility
11:00 AM
Dec 21
55 °FFog.2 mph94%30.48 "Hg1 mi
9:00 AM52 °FFog.No wind100%30.45 "Hg1 mi
8:30 AM52 °FFog.No wind100%30.45 "Hg1 mi
8:00 AM52 °FFog.No wind100%30.45 "Hg1 mi
7:30 AM52 °FFog.No wind100%30.42 "Hg2 mi
7:00 AM52 °FFog.No wind100%30.42 "Hg2 mi
6:30 AM52 °FFog.2 mph100%30.42 "Hg1 mi
6:00 AM52 °FFog.2 mph100%30.42 "Hg1 mi
5:30 AM52 °FFog.1 mph100%30.42 "Hg1 mi
5:00 AM52 °FFog.2 mph100%30.42 "Hg1 mi
4:30 AM50 °FFog.2 mph100%30.42 "Hg1 mi
4:00 AM50 °FFog.2 mph100%30.42 "Hg1 mi
3:30 AM50 °FFog.2 mph100%30.42 "Hg0 mi
3:00 AM50 °FFog.2 mph100%30.42 "Hg0 mi
2:30 AM48 °FFog.3 mph100%30.42 "Hg0 mi
2:00 AM50 °FFog.2 mph100%30.42 "Hg2 mi
1:30 AM48 °FFog.No wind100%30.42 "Hg1 mi
1:00 AM48 °FFog.3 mph100%30.42 "Hg0 mi
12:30 AM50 °FFog.3 mph100%30.42 "Hg0 mi
12:00 AM54 °FFog.2 mph94%30.42 "Hg2 mi
11:30 PM
Dec 20
54 °FFog.3 mph94%30.42 "Hg2 mi
10:30 PM52 °FPassing clouds.6 mph100%30.42 "Hg3 mi
10:00 PM52 °FPassing clouds.5 mph100%30.42 "Hg3 mi
9:30 PM54 °FPassing clouds.3 mph100%30.42 "Hg3 mi
9:00 PM54 °FClear.3 mph100%30.42 "Hg6 mi
8:30 PM54 °FClear.2 mph100%30.42 "Hg6 mi
8:00 PM55 °FClear.3 mph100%30.42 "Hg6 mi
7:30 PM57 °FClear.3 mph94%30.42 "Hg6 mi
7:00 PM59 °FClear.3 mph88%30.42 "Hg10 mi
6:30 PM57 °FClear.6 mph88%30.39 "Hg10 mi
6:00 PM59 °FClear.8 mph88%30.39 "Hg10 mi
5:30 PM61 °FSunny.7 mph83%30.39 "Hg10 mi
5:00 PM63 °FSunny.9 mph83%30.39 "Hg10 mi
4:30 PM63 °FSunny.9 mph77%30.39 "Hg10 mi
4:00 PM64 °FSunny.10 mph73%30.39 "Hg10 mi
3:30 PM64 °FSunny.9 mph73%30.39 "Hg10 mi
3:00 PM64 °FSunny.9 mph73%30.39 "Hg10 mi
2:30 PM64 °FSunny.9 mph73%30.39 "Hg10 mi
2:00 PM66 °FSunny.7 mph68%30.39 "Hg10 mi
1:30 PM66 °FSunny.3 mph68%30.39 "Hg10 mi
1:00 PM64 °FSunny.2 mph73%30.42 "Hg10 mi
12:30 PM64 °FSunny.2 mph64%30.42 "Hg10 mi
12:00 PM63 °FSunny.2 mph68%30.45 "Hg10 mi
Weather by CustomWeather, © 2014

See weather overviewHow to use our weather pages